This is the latest recevied weather packets stored in our database for station/object CX5ACA-13. If no packets are shown the sender has not sent any weather packets the latest 10 day(s).
| Time | Temp. | Humidity | Pressure | Rain* | Wind** | Luminosity | Snow |
|---|---|---|---|---|---|---|---|
| 1777214583 | 21.11° C | 62% | 1007.7 hPa | 0 mm | - | 198 W/m² | - |
| 1777214279 | 21.67° C | 61% | 1007.8 hPa | 0 mm | - | 612 W/m² | - |
| 1777213977 | 21.11° C | 59% | 1007.5 hPa | 0 mm | - | 457 W/m² | - |
| 1777213673 | 21.11° C | 59% | 1007.7 hPa | 0 mm | - | 510 W/m² | - |
| 1777213369 | 21.67° C | 58% | 1007.7 hPa | 0 mm | - | 514 W/m² | - |
| 1777213067 | 21.67° C | 57% | 1007.9 hPa | 0 mm | - | 552 W/m² | - |
| 1777212764 | 21.67° C | 56% | 1007.8 hPa | 0 mm | - | 512 W/m² | - |
| 1777212459 | 22.22° C | 57% | 1008 hPa | 0 mm | - | 353 W/m² | - |
| 1777212153 | 21.67° C | 59% | 1007.8 hPa | 0 mm | - | 477 W/m² | - |
| 1777211849 | 21.11° C | 60% | 1008 hPa | 0 mm | - | 487 W/m² | - |
| 1777211548 | 21.67° C | 59% | 1008 hPa | 0 mm | - | 277 W/m² | - |
| 1777211244 | 21.11° C | 60% | 1008.1 hPa | 0 mm | - | 273 W/m² | - |
| 1777210941 | 21.11° C | 59% | 1008.2 hPa | 0 mm | - | 415 W/m² | - |
| 1777210641 | 21.11° C | 67% | 1008.2 hPa | 0 mm | - | 402 W/m² | - |
| 1777210337 | 21.11° C | 67% | 1008 hPa | 0 mm | - | 395 W/m² | - |
| 1777210035 | 20.56° C | 67% | 1008.3 hPa | 0 mm | - | 408 W/m² | - |
| 1777209735 | 20.56° C | 67% | 1008.4 hPa | 0 mm | - | 413 W/m² | - |
| 1777209430 | 20.56° C | 68% | 1008.2 hPa | 0 mm | - | 353 W/m² | - |
| 1777209127 | 20.56° C | 75% | 1008.3 hPa | 0 mm | - | 327 W/m² | - |
| 1777208823 | 20.56° C | 74% | 1008.2 hPa | 0 mm | - | 329 W/m² | - |
| 1777208520 | 20.56° C | 75% | 1008.3 hPa | 0 mm | - | 318 W/m² | - |
| 1777208216 | 20° C | 78% | 1008.3 hPa | 0 mm | - | 306 W/m² | - |
| 1777207912 | 19.44° C | 79% | 1008.2 hPa | 0 mm | - | 294 W/m² | - |
| 1777207607 | 19.44° C | 79% | 1008.5 hPa | 0 mm | - | 288 W/m² | - |
| 1777207302 | 18.33° C | 83% | 1008.3 hPa | 0 mm | - | 271 W/m² | - |
* Rain latest hour (hover to see other rain measurements)
** Current wind speed in m/s (hover to see current wind gust speed)